| time (UTC) | temp F | wind direction | speed MPH | gust MPH | rain 1hr in | rain 24hr in | rain mn in | humidity % | barometer mb |
| 20260505124748 | 60 | 297 | 0.0 | 0.0 | 0.00 | 0.39 | 0.39 | 98 | 1008.0 |
| 20260505124245 | 60 | 297 | 0.0 | 0.0 | 0.00 | 0.39 | 0.39 | 98 | 1008.2 |
| 20260505123741 | 59 | 297 | 0.0 | 0.0 | 0.00 | 0.39 | 0.39 | 98 | 1007.8 |
| 20260505123238 | 59 | 297 | 0.0 | 0.0 | 0.00 | 0.39 | 0.39 | 98 | 1007.9 |
| 20260505122734 | 59 | 297 | 0.0 | 0.0 | 0.00 | 0.39 | 0.39 | 98 | 1007.7 |
| 20260505122232 | 59 | 297 | 0.0 | 0.0 | 0.00 | 0.39 | 0.39 | 98 | 1008.1 |
| 20260505121728 | 59 | 297 | 0.0 | 0.0 | 0.00 | 0.39 | 0.39 | 98 | 1007.9 |
| 20260505121225 | 59 | 297 | 0.0 | 0.0 | 0.00 | 0.39 | 0.39 | 98 | 1007.9 |
| 20260505120721 | 59 | 297 | 0.0 | 0.0 | 0.00 | 0.39 | 0.39 | 98 | 1007.6 |
| 20260505120217 | 59 | 297 | 0.0 | 0.0 | 0.00 | 0.39 | 0.39 | 98 | 1007.8 |
| 20260505115715 | 59 | 297 | 0.0 | 0.0 | 0.00 | 0.39 | 0.39 | 98 | 1007.7 |
| 20260505115214 | 59 | 297 | 0.0 | 0.0 | 0.00 | 0.39 | 0.39 | 98 | 1007.6 |
| 20260505114711 | 59 | 297 | 0.0 | 0.0 | 0.00 | 0.39 | 0.39 | 97 | 1007.8 |
| 20260505114207 | 59 | 297 | 0.0 | 0.0 | 0.00 | 0.39 | 0.39 | 97 | 1007.7 |
| 20260505113703 | 59 | 297 | 0.0 | 0.0 | 0.00 | 0.39 | 0.39 | 97 | 1007.6 |
| 20260505113200 | 59 | 295 | 1.0 | 1.0 | 0.00 | 0.39 | 0.39 | 98 | 1007.6 |
| 20260505112656 | 59 | 306 | 0.0 | 0.0 | 0.00 | 0.39 | 0.39 | 98 | 1007.5 |
| 20260505112155 | 60 | 306 | 0.0 | 0.0 | 0.00 | 0.39 | 0.39 | 98 | 1007.3 |
| 20260505111654 | 60 | 305 | 0.0 | 0.0 | 0.00 | 0.39 | 0.39 | 98 | 1007.1 |
| 20260505111150 | 60 | 274 | 0.0 | 0.0 | 0.00 | 0.39 | 0.39 | 98 | 1007.2 |
| 20260505110646 | 60 | 234 | 0.0 | 0.0 | 0.00 | 0.39 | 0.39 | 98 | 1007.4 |
| 20260505110144 | 60 | 315 | 2.0 | 3.0 | 0.00 | 0.39 | 0.39 | 98 | 1007.3 |
| 20260505102120 | 60 | 246 | 0.0 | 0.0 | 0.00 | 0.39 | 0.39 | 98 | 1006.8 |
| 20260505101618 | 60 | 224 | 0.0 | 0.0 | 0.00 | 0.39 | 0.39 | 98 | 1006.9 |
| 20260505101114 | 60 | 224 | 0.0 | 0.0 | 0.05 | 0.39 | 0.39 | 98 | 1006.8 |
| 20260505100610 | 60 | 178 | 0.0 | 0.0 | 0.05 | 0.39 | 0.39 | 98 | 1006.7 |
| 20260505100107 | 60 | 176 | 0.0 | 0.0 | 0.00 | 0.38 | 0.38 | 98 | 1006.7 |
| 20260505095603 | 60 | 174 | 0.0 | 0.0 | 0.00 | 0.38 | 0.38 | 98 | 1006.6 |
| 20260505095100 | 60 | 204 | 0.0 | 0.0 | 0.00 | 0.38 | 0.38 | 98 | 1006.9 |
| 20260505094557 | 60 | 237 | 0.0 | 0.0 | 0.07 | 0.38 | 0.38 | 98 | 1006.3 |
| 20260505094053 | 60 | 174 | 2.0 | 2.0 | 0.07 | 0.38 | 0.38 | 98 | 1006.2 |
| 20260505093549 | 60 | 182 | 2.0 | 3.0 | 0.00 | 0.37 | 0.37 | 98 | 1006.2 |
| 20260505093047 | 60 | 130 | 2.0 | 3.0 | 0.00 | 0.37 | 0.37 | 98 | 1006.3 |
| 20260505092544 | 60 | 145 | 3.0 | 4.0 | 0.07 | 0.37 | 0.37 | 98 | 1006.9 |
| 20260505092043 | 60 | 172 | 0.0 | 0.0 | 0.12 | 0.37 | 0.37 | 98 | 1007.1 |
| 20260505091539 | 60 | 172 | 0.0 | 2.0 | 0.12 | 0.36 | 0.36 | 98 | 1007.8 |
| 20260505091037 | 60 | 173 | 0.0 | 0.0 | 0.07 | 0.35 | 0.35 | 98 | 1008.0 |
| 20260505090535 | 60 | 188 | 0.0 | 0.0 | 0.05 | 0.34 | 0.34 | 98 | 1007.9 |
| 20260505090033 | 60 | 230 | 0.0 | 0.0 | 0.12 | 0.34 | 0.34 | 98 | 1008.1 |
| 20260505085530 | 60 | 230 | 0.0 | 0.0 | 0.07 | 0.33 | 0.33 | 97 | 1007.9 |
| 20260505085028 | 60 | 230 | 0.0 | 0.0 | 0.05 | 0.32 | 0.32 | 97 | 1007.8 |
| 20260505084526 | 60 | 151 | 0.0 | 0.0 | 0.12 | 0.32 | 0.32 | 97 | 1007.3 |
| 20260505084024 | 60 | 151 | 0.0 | 0.0 | 0.24 | 0.31 | 0.31 | 97 | 1007.5 |
| 20260505083521 | 60 | 157 | 0.0 | 0.0 | 0.24 | 0.29 | 0.29 | 97 | 1007.8 |
| 20260505083017 | 60 | 157 | 0.0 | 0.0 | 0.26 | 0.27 | 0.27 | 97 | 1008.0 |
| 20260505082513 | 60 | 157 | 0.0 | 0.0 | 0.31 | 0.25 | 0.25 | 97 | 1008.2 |
| 20260505082010 | 60 | 161 | 0.0 | 0.0 | 0.24 | 0.23 | 0.23 | 97 | 1008.1 |
| 20260505081506 | 60 | 161 | 0.0 | 0.0 | 0.19 | 0.20 | 0.20 | 96 | 1008.3 |
| 20260505081003 | 60 | 161 | 0.0 | 0.0 | 0.24 | 0.19 | 0.19 | 96 | 1008.5 |
| 20260505080500 | 60 | 161 | 0.0 | 0.0 | 0.24 | 0.17 | 0.17 | 96 | 1008.4 |
| 20260505075955 | 60 | 161 | 0.0 | 0.0 | 0.19 | 0.14 | 0.14 | 96 | 1008.5 |
| 20260505075452 | 60 | 161 | 0.0 | 0.0 | 0.24 | 0.13 | 0.13 | 95 | 1008.7 |
| 20260505074949 | 60 | 161 | 0.0 | 0.0 | 0.19 | 0.11 | 0.11 | 95 | 1008.6 |
| 20260505074447 | 61 | 161 | 0.0 | 0.0 | 0.12 | 0.09 | 0.09 | 94 | 1008.3 |
| 20260505073944 | 61 | 161 | 0.0 | 0.0 | 0.12 | 0.08 | 0.08 | 93 | 1008.1 |
| 20260505073441 | 61 | 175 | 0.0 | 0.0 | 0.24 | 0.07 | 0.07 | 91 | 1008.4 |
| 20260505072938 | 62 | 177 | 0.0 | 0.0 | 0.24 | 0.05 | 0.05 | 89 | 1008.3 |
| 20260505072434 | 63 | 176 | 0.0 | 0.0 | 0.12 | 0.02 | 0.02 | 86 | 1008.2 |
| 20260505071931 | 63 | 168 | 0.0 | 0.0 | 0.07 | 0.01 | 0.01 | 83 | 1008.0 |
| 20260505071427 | 64 | 172 | 0.0 | 0.0 | 0.00 | 0.00 | 0.00 | 79 | 1007.8 |
| 20260505070925 | 65 | 200 | 0.0 | 1.0 | 0.00 | 0.00 | 0.00 | 76 | 1007.5 |
| 20260505070421 | 65 | 182 | 2.0 | 6.0 | 0.00 | 0.00 | 0.00 | 74 | 1007.9 |
| 20260505065917 | 66 | 228 | 0.0 | 0.0 | 0.00 | 0.00 | 0.00 | 72 | 1007.7 |
| 20260505065414 | 66 | 167 | 0.0 | 0.0 | 0.00 | 0.00 | 0.00 | 72 | 1007.6 |
| 20260505064910 | 66 | 175 | 0.0 | 1.0 | 0.00 | 0.00 | 0.00 | 71 | 1007.5 |
| 20260505064408 | 66 | 161 | 1.0 | 1.0 | 0.00 | 0.00 | 0.00 | 71 | 1007.3 |
| 20260505063906 | 66 | 184 | 1.0 | 1.0 | 0.00 | 0.00 | 0.00 | 71 | 1007.2 |
| 20260505063402 | 66 | 154 | 0.0 | 0.0 | 0.00 | 0.00 | 0.00 | 70 | 1007.5 |
| 20260505062859 | 66 | 158 | 0.0 | 1.0 | 0.00 | 0.00 | 0.00 | 70 | 1007.6 |
| 20260505062356 | 66 | 168 | 2.0 | 3.0 | 0.00 | 0.00 | 0.00 | 71 | 1007.5 |
| 20260505061852 | 66 | 157 | 0.0 | 0.0 | 0.00 | 0.00 | 0.00 | 71 | 1007.7 |
| 20260505061351 | 66 | 167 | 2.0 | 2.0 | 0.00 | 0.00 | 0.00 | 70 | 1007.9 |
| 20260505060848 | 66 | 168 | 1.0 | 3.0 | 0.00 | 0.00 | 0.00 | 70 | 1007.8 |
| 20260505060345 | 66 | 170 | 2.0 | 3.0 | 0.00 | 0.00 | 0.00 | 70 | 1007.6 |
| 20260505055841 | 66 | 173 | 2.0 | 3.0 | 0.00 | 0.00 | 0.00 | 70 | 1007.9 |
| 20260505055337 | 66 | 166 | 2.0 | 2.0 | 0.00 | 0.00 | 0.00 | 71 | 1008.0 |
| 20260505054834 | 66 | 171 | 1.0 | 3.0 | 0.00 | 0.00 | 0.00 | 70 | 1007.8 |
| 20260505054331 | 66 | 153 | 2.0 | 3.0 | 0.00 | 0.00 | 0.00 | 70 | 1007.8 |
| 20260505053830 | 66 | 179 | 1.0 | 2.0 | 0.00 | 0.00 | 0.00 | 70 | 1007.9 |
| 20260505053326 | 66 | 167 | 1.0 | 3.0 | 0.00 | 0.00 | 0.00 | 70 | 1007.9 |
| 20260505052823 | 66 | 160 | 2.0 | 2.0 | 0.00 | 0.00 | 0.00 | 70 | 1007.6 |
| 20260505052320 | 66 | 178 | 1.0 | 2.0 | 0.00 | 0.00 | 0.00 | 70 | 1007.6 |
| 20260505051817 | 66 | 180 | 0.0 | 0.0 | 0.00 | 0.00 | 0.00 | 70 | 1007.6 |
| 20260505051314 | 66 | 174 | 1.0 | 2.0 | 0.00 | 0.00 | 0.00 | 70 | 1007.8 |
| 20260505050812 | 66 | 145 | 2.0 | 2.0 | 0.00 | 0.00 | 0.00 | 70 | 1007.8 |
| 20260505050311 | 66 | 173 | 1.0 | 2.0 | 0.00 | 0.00 | 0.00 | 70 | 1007.9 |
| 20260505041740 | 66 | 167 | 0.0 | 0.0 | 0.00 | 0.00 | 0.00 | 71 | 1008.2 |
| 20260505041237 | 66 | 167 | 0.0 | 0.0 | 0.00 | 0.00 | 0.00 | 70 | 1008.4 |
| 20260505040735 | 66 | 167 | 0.0 | 0.0 | 0.00 | 0.00 | 0.00 | 70 | 1008.5 |
| 20260505040232 | 66 | 167 | 0.0 | 0.0 | 0.00 | 0.00 | 0.00 | 69 | 1008.4 |
| 20260505035729 | 67 | 167 | 0.0 | 2.0 | 0.00 | 0.00 | 0.00 | 68 | 1008.5 |
| 20260505035225 | 67 | 164 | 0.0 | 1.0 | 0.00 | 0.00 | 0.00 | 68 | 1008.5 |
| 20260505034722 | 67 | 165 | 0.0 | 0.0 | 0.00 | 0.00 | 0.00 | 68 | 1008.6 |
| 20260505034218 | 67 | 165 | 0.0 | 0.0 | 0.00 | 0.00 | 0.00 | 67 | 1008.7 |
| 20260505033715 | 67 | 165 | 0.0 | 0.0 | 0.00 | 0.00 | 0.00 | 68 | 1008.6 |
| 20260505033213 | 67 | 164 | 0.0 | 0.0 | 0.00 | 0.00 | 0.00 | 69 | 1008.6 |
| 20260505032711 | 67 | 164 | 0.0 | 1.0 | 0.00 | 0.00 | 0.00 | 68 | 1008.7 |
| 20260505032206 | 67 | 164 | 0.0 | 0.0 | 0.00 | 0.00 | 0.00 | 68 | 1008.7 |
| 20260505031704 | 67 | 164 | 0.0 | 1.0 | 0.00 | 0.00 | 0.00 | 68 | 1008.6 |
| 20260505031201 | 67 | 164 | 0.0 | 0.0 | 0.00 | 0.00 | 0.00 | 68 | 1008.6 |
| 20260505030657 | 68 | 164 | 0.0 | 0.0 | 0.00 | 0.00 | 0.00 | 67 | 1008.7 |
| 20260505030153 | 68 | 164 | 0.0 | 0.0 | 0.00 | 0.00 | 0.00 | 66 | 1008.6 |
| 20260505025649 | 68 | 164 | 0.0 | 0.0 | 0.00 | 0.00 | 0.00 | 66 | 1008.7 |
| 20260505025148 | 69 | 164 | 0.0 | 0.0 | 0.00 | 0.00 | 0.00 | 65 | 1008.7 |
| 20260505024645 | 69 | 164 | 0.0 | 0.0 | 0.00 | 0.00 | 0.00 | 64 | 1008.6 |
| 20260505024142 | 68 | 164 | 0.0 | 0.0 | 0.00 | 0.00 | 0.00 | 65 | 1008.6 |
| 20260505023640 | 68 | 164 | 0.0 | 0.0 | 0.00 | 0.00 | 0.00 | 66 | 1008.5 |
| 20260505023137 | 69 | 164 | 0.0 | 0.0 | 0.00 | 0.00 | 0.00 | 65 | 1008.6 |
| 20260505022634 | 69 | 164 | 0.0 | 0.0 | 0.00 | 0.00 | 0.00 | 64 | 1008.7 |
| 20260505022131 | 69 | 164 | 0.0 | 0.0 | 0.00 | 0.00 | 0.00 | 63 | 1008.2 |
| 20260505021628 | 70 | 164 | 0.0 | 0.0 | 0.00 | 0.00 | 0.00 | 62 | 1008.1 |
| 20260505021124 | 70 | 164 | 0.0 | 1.0 | 0.00 | 0.00 | 0.00 | 61 | 1008.1 |
| 20260505020614 | 71 | 167 | 1.0 | 1.0 | 0.00 | 0.00 | 0.00 | 60 | 1007.8 |
| 20260505020111 | 71 | 161 | 0.0 | 0.0 | 0.00 | 0.00 | 0.00 | 60 | 1008.0 |
| 20260505015608 | 71 | 160 | 2.0 | 2.0 | 0.00 | 0.00 | 0.00 | 60 | 1007.8 |
| 20260505015105 | 71 | 169 | 1.0 | 1.0 | 0.00 | 0.00 | 0.00 | 60 | 1007.8 |
| 20260505014601 | 71 | 170 | 2.0 | 3.0 | 0.00 | 0.00 | 0.00 | 59 | 1007.7 |
| 20260505014058 | 71 | 150 | 2.0 | 8.0 | 0.00 | 0.00 | 0.00 | 59 | 1007.8 |
| 20260505013555 | 72 | 167 | 3.0 | 4.0 | 0.00 | 0.00 | 0.00 | 58 | 1007.5 |
| 20260505013053 | 72 | 169 | 0.0 | 2.0 | 0.00 | 0.00 | 0.00 | 59 | 1007.3 |
| 20260505012551 | 72 | 155 | 1.0 | 3.0 | 0.00 | 0.00 | 0.00 | 59 | 1007.4 |
| 20260505012048 | 72 | 160 | 2.0 | 2.0 | 0.00 | 0.00 | 0.00 | 59 | 1007.4 |
| 20260505011543 | 72 | 160 | 1.0 | 2.0 | 0.00 | 0.00 | 0.00 | 59 | 1007.3 |
| 20260505011041 | 72 | 165 | 2.0 | 3.0 | 0.00 | 0.00 | 0.00 | 58 | 1007.1 |
| 20260505010536 | 72 | 173 | 1.0 | 2.0 | 0.00 | 0.00 | 0.00 | 58 | 1007.1 |
| 20260505010032 | 73 | 189 | 0.0 | 0.0 | 0.00 | 0.00 | 0.00 | 58 | 1007.0 |
| 20260505005529 | 73 | 204 | 0.0 | 3.0 | 0.00 | 0.00 | 0.00 | 57 | 1007.1 |
| 20260505005027 | 73 | 189 | 2.0 | 6.0 | 0.00 | 0.00 | 0.00 | 57 | 1006.9 |
| 20260505004523 | 73 | 195 | 1.0 | 2.0 | 0.00 | 0.00 | 0.00 | 57 | 1006.8 |
| 20260505004020 | 73 | 174 | 1.0 | 3.0 | 0.00 | 0.00 | 0.00 | 57 | 1006.7 |
| 20260505003517 | 73 | 168 | 2.0 | 3.0 | 0.00 | 0.00 | 0.00 | 57 | 1006.5 |
| 20260505003014 | 73 | 155 | 2.0 | 3.0 | 0.00 | 0.00 | 0.00 | 56 | 1006.5 |
| 20260505002509 | 74 | 168 | 2.0 | 3.0 | 0.00 | 0.00 | 0.00 | 56 | 1006.7 |
| 20260505002008 | 74 | 154 | 1.0 | 2.0 | 0.00 | 0.00 | 0.00 | 56 | 1006.5 |
| 20260505001505 | 74 | 168 | 1.0 | 2.0 | 0.00 | 0.00 | 0.00 | 55 | 1006.6 |
| 20260505001002 | 74 | 163 | 2.0 | 3.0 | 0.00 | 0.00 | 0.00 | 54 | 1006.5 |
| 20260505000500 | 74 | 184 | 0.0 | 2.0 | 0.00 | 0.00 | 0.00 | 54 | 1006.7 |
| 20260504235956 | 75 | 177 | 2.0 | 2.0 | 0.00 | 0.00 | 0.00 | 52 | 1006.7 |
| 20260504235454 | 75 | 172 | 1.0 | 4.0 | 0.00 | 0.00 | 0.00 | 52 | 1006.5 |
| 20260504234950 | 75 | 167 | 2.0 | 3.0 | 0.00 | 0.00 | 0.00 | 51 | 1006.5 |
| 20260504234447 | 75 | 130 | 1.0 | 4.0 | 0.00 | 0.00 | 0.00 | 51 | 1006.5 |
| 20260504233943 | 76 | 198 | 1.0 | 4.0 | 0.00 | 0.00 | 0.00 | 51 | 1006.5 |
| 20260504233439 | 76 | 202 | 4.0 | 4.0 | 0.00 | 0.00 | 0.00 | 49 | 1006.5 |
| 20260504232937 | 76 | 167 | 1.0 | 6.0 | 0.00 | 0.00 | 0.00 | 49 | 1006.4 |
| 20260504232434 | 77 | 159 | 3.0 | 9.0 | 0.00 | 0.00 | 0.00 | 50 | 1006.6 |
| 20260504231931 | 77 | 190 | 4.0 | 7.0 | 0.00 | 0.00 | 0.00 | 48 | 1006.6 |
| 20260504231427 | 77 | 153 | 4.0 | 6.0 | 0.00 | 0.00 | 0.00 | 48 | 1006.5 |
| 20260504230923 | 78 | 205 | 2.0 | 7.0 | 0.00 | 0.00 | 0.00 | 48 | 1006.7 |
| 20260504230420 | 78 | 172 | 4.0 | 8.0 | 0.00 | 0.00 | 0.00 | 47 | 1006.8 |
| 20260504225919 | 78 | 187 | 2.0 | 6.0 | 0.00 | 0.00 | 0.00 | 46 | 1006.7 |
| 20260504225416 | 79 | 177 | 3.0 | 3.0 | 0.00 | 0.00 | 0.00 | 45 | 1006.6 |
| 20260504224913 | 79 | 178 | 3.0 | 8.0 | 0.00 | 0.00 | 0.00 | 45 | 1006.8 |
| 20260504224409 | 79 | 171 | 3.0 | 4.0 | 0.00 | 0.00 | 0.00 | 45 | 1006.7 |
| 20260504223907 | 79 | 188 | 2.0 | 6.0 | 0.00 | 0.00 | 0.00 | 45 | 1006.9 |
| 20260504223402 | 79 | 163 | 3.0 | 4.0 | 0.00 | 0.00 | 0.00 | 45 | 1006.9 |
| 20260504222859 | 79 | 134 | 6.0 | 8.0 | 0.00 | 0.00 | 0.00 | 45 | 1006.9 |
| 20260504222355 | 79 | 117 | 1.0 | 7.0 | 0.00 | 0.00 | 0.00 | 47 | 1006.9 |
| 20260504221854 | 79 | 148 | 1.0 | 3.0 | 0.00 | 0.00 | 0.00 | 45 | 1006.7 |
| 20260504221350 | 79 | 195 | 1.0 | 9.0 | 0.00 | 0.00 | 0.00 | 45 | 1006.9 |
| 20260504220847 | 79 | 167 | 4.0 | 8.0 | 0.00 | 0.00 | 0.00 | 44 | 1006.6 |
| 20260504220344 | 79 | 172 | 4.0 | 11.0 | 0.00 | 0.00 | 0.00 | 44 | 1006.7 |
| 20260504215841 | 79 | 162 | 4.0 | 9.0 | 0.00 | 0.00 | 0.00 | 44 | 1006.8 |
| 20260504215337 | 79 | 179 | 4.0 | 4.0 | 0.00 | 0.00 | 0.00 | 44 | 1006.7 |
| 20260504214833 | 79 | 169 | 6.0 | 11.0 | 0.00 | 0.00 | 0.00 | 44 | 1006.8 |
| 20260504214331 | 80 | 157 | 6.0 | 9.0 | 0.00 | 0.00 | 0.00 | 44 | 1006.8 |
| 20260504213827 | 80 | 254 | 4.0 | 8.0 | 0.00 | 0.00 | 0.00 | 43 | 1006.9 |
| 20260504213323 | 80 | 137 | 4.0 | 10.0 | 0.00 | 0.00 | 0.00 | 43 | 1006.8 |
| 20260504212821 | 81 | 111 | 6.0 | 8.0 | 0.00 | 0.00 | 0.00 | 43 | 1007.1 |
| 20260504212317 | 80 | 97 | 4.0 | 4.0 | 0.00 | 0.00 | 0.00 | 43 | 1007.1 |
| 20260504211815 | 80 | 276 | 1.0 | 7.0 | 0.00 | 0.00 | 0.00 | 43 | 1007.1 |
| 20260504211310 | 80 | 141 | 4.0 | 4.0 | 0.00 | 0.00 | 0.00 | 44 | 1007.3 |
| 20260504210808 | 80 | 193 | 4.0 | 9.0 | 0.00 | 0.00 | 0.00 | 43 | 1007.1 |
| 20260504210305 | 80 | 147 | 4.0 | 6.0 | 0.00 | 0.00 | 0.00 | 42 | 1007.1 |
| 20260504205802 | 80 | 189 | 1.0 | 3.0 | 0.00 | 0.00 | 0.00 | 43 | 1007.5 |
| 20260504205300 | 80 | 106 | 3.0 | 10.0 | 0.00 | 0.00 | 0.00 | 43 | 1007.4 |
| 20260504204758 | 80 | 180 | 4.0 | 11.0 | 0.00 | 0.00 | 0.00 | 43 | 1007.5 |
| 20260504204256 | 80 | 205 | 1.0 | 9.0 | 0.00 | 0.00 | 0.00 | 44 | 1007.6 |
| 20260504203755 | 80 | 140 | 4.0 | 10.0 | 0.00 | 0.00 | 0.00 | 43 | 1007.7 |
| 20260504203253 | 80 | 172 | 6.0 | 8.0 | 0.00 | 0.00 | 0.00 | 42 | 1007.7 |
| 20260504202752 | 80 | 188 | 2.0 | 11.0 | 0.00 | 0.00 | 0.00 | 43 | 1007.8 |
| 20260504202250 | 80 | 204 | 9.0 | 13.0 | 0.00 | 0.00 | 0.00 | 42 | 1007.8 |
| 20260504201747 | 80 | 182 | 7.0 | 10.0 | 0.00 | 0.00 | 0.00 | 44 | 1007.7 |
| 20260504201244 | 80 | 321 | 2.0 | 6.0 | 0.00 | 0.00 | 0.00 | 43 | 1007.8 |
| 20260504200742 | 80 | 199 | 7.0 | 11.0 | 0.00 | 0.00 | 0.00 | 43 | 1008.1 |
| 20260504200237 | 81 | 180 | 2.0 | 6.0 | 0.00 | 0.00 | 0.00 | 44 | 1007.9 |
| 20260504195734 | 80 | 158 | 2.0 | 9.0 | 0.00 | 0.00 | 0.00 | 45 | 1007.9 |
| 20260504195230 | 80 | 150 | 3.0 | 7.0 | 0.00 | 0.00 | 0.00 | 45 | 1007.8 |
| 20260504194727 | 80 | 202 | 2.0 | 10.0 | 0.00 | 0.00 | 0.00 | 45 | 1008.1 |
| 20260504194223 | 80 | 329 | 4.0 | 4.0 | 0.00 | 0.00 | 0.00 | 48 | 1008.0 |
| 20260504193720 | 79 | 195 | 2.0 | 6.0 | 0.00 | 0.00 | 0.00 | 46 | 1008.4 |
| 20260504193218 | 79 | 151 | 5.0 | 7.0 | 0.00 | 0.00 | 0.00 | 45 | 1008.2 |
| 20260504192716 | 79 | 239 | 1.0 | 3.0 | 0.00 | 0.00 | 0.00 | 48 | 1008.4 |
| 20260504192213 | 79 | 133 | 5.0 | 17.0 | 0.00 | 0.00 | 0.00 | 46 | 1008.5 |
| 20260504191712 | 79 | 173 | 2.0 | 9.0 | 0.00 | 0.00 | 0.00 | 45 | 1008.4 |
| 20260504191208 | 79 | 182 | 4.0 | 10.0 | 0.00 | 0.00 | 0.00 | 46 | 1008.5 |
| 20260504190703 | 79 | 130 | 1.0 | 4.0 | 0.00 | 0.00 | 0.00 | 45 | 1008.5 |
| 20260504190200 | 79 | 210 | 3.0 | 7.0 | 0.00 | 0.00 | 0.00 | 45 | 1008.5 |
| 20260504185657 | 79 | 198 | 1.0 | 3.0 | 0.00 | 0.00 | 0.00 | 47 | 1008.6 |
| 20260504185153 | 78 | 129 | 5.0 | 10.0 | 0.00 | 0.00 | 0.00 | 46 | 1008.5 |
| 20260504184649 | 78 | 233 | 5.0 | 6.0 | 0.00 | 0.00 | 0.00 | 45 | 1008.6 |
| 20260504184144 | 78 | 116 | 6.0 | 10.0 | 0.00 | 0.00 | 0.00 | 46 | 1008.5 |
| 20260504183642 | 78 | 27 | 1.0 | 4.0 | 0.00 | 0.00 | 0.00 | 47 | 1008.7 |
| 20260504183139 | 78 | 148 | 3.0 | 6.0 | 0.00 | 0.00 | 0.00 | 46 | 1008.7 |
| 20260504182637 | 78 | 146 | 3.0 | 10.0 | 0.00 | 0.00 | 0.00 | 47 | 1008.7 |
| 20260504182134 | 78 | 163 | 10.0 | 16.0 | 0.00 | 0.00 | 0.00 | 47 | 1008.8 |
| 20260504181632 | 78 | 160 | 4.0 | 8.0 | 0.00 | 0.00 | 0.00 | 47 | 1009.0 |
| 20260504181129 | 77 | 168 | 6.0 | 13.0 | 0.00 | 0.00 | 0.00 | 46 | 1009.0 |
| 20260504180628 | 77 | 132 | 8.0 | 11.0 | 0.00 | 0.00 | 0.00 | 46 | 1009.0 |
| 20260504180126 | 77 | 199 | 5.0 | 11.0 | 0.00 | 0.00 | 0.00 | 47 | 1008.9 |
| 20260504175623 | 77 | 93 | 3.0 | 11.0 | 0.00 | 0.00 | 0.00 | 46 | 1009.1 |
| 20260504175120 | 78 | 125 | 8.0 | 13.0 | 0.00 | 0.00 | 0.00 | 47 | 1008.9 |
| 20260504174618 | 77 | 173 | 3.0 | 9.0 | 0.00 | 0.00 | 0.00 | 46 | 1008.9 |
| 20260504174114 | 76 | 183 | 6.0 | 10.0 | 0.00 | 0.00 | 0.00 | 47 | 1009.0 |
| 20260504173611 | 76 | 188 | 5.0 | 13.0 | 0.00 | 0.00 | 0.00 | 47 | 1009.3 |
| 20260504173109 | 76 | 207 | 7.0 | 14.0 | 0.00 | 0.00 | 0.00 | 47 | 1009.3 |
| 20260504172605 | 76 | 143 | 5.0 | 10.0 | 0.00 | 0.00 | 0.00 | 47 | 1009.4 |
| 20260504172102 | 76 | 155 | 4.0 | 11.0 | 0.00 | 0.00 | 0.00 | 48 | 1009.4 |
| 20260504171558 | 76 | 170 | 7.0 | 10.0 | 0.00 | 0.00 | 0.00 | 47 | 1009.5 |
| 20260504171055 | 76 | 160 | 4.0 | 10.0 | 0.00 | 0.00 | 0.00 | 48 | 1009.4 |
| 20260504170551 | 76 | 143 | 4.0 | 13.0 | 0.00 | 0.00 | 0.00 | 49 | 1009.1 |
| 20260504150929 | 73 | 214 | 2.0 | 9.0 | 0.00 | 0.00 | 0.00 | 51 | 1010.5 |
| 20260504150426 | 72 | 199 | 3.0 | 6.0 | 0.00 | 0.00 | 0.00 | 52 | 1010.4 |
| 20260504140847 | 69 | 155 | 2.0 | 4.0 | 0.00 | 0.00 | 0.00 | 58 | 1011.3 |
| 20260504140343 | 68 | 116 | 2.0 | 7.0 | 0.00 | 0.00 | 0.00 | 59 | 1011.3 |
| 20260504130812 | 65 | 154 | 2.0 | 4.0 | 0.00 | 0.00 | 0.00 | 62 | 1011.6 |
| 20260504130308 | 65 | 170 | 0.0 | 3.0 | 0.00 | 0.00 | 0.00 | 62 | 1011.8 |